Epoch 2003 Mar. 22.0 TT = JDT 2452720.5 T 2003 Mar. 11.18143 TT MPC q 1.7824663 (2000.0) P Q z +0.0016800 Peri. 8.59250 +0.83268703 -0.51270025 +/-0.0000351 Node 25.84964 +0.47525741 +0.46779186 e 0.9970055 Incl. 28.67483 +0.28418780 +0.71993696 >From 341 observations 2003 Nov. 4-2004 Feb. 1, mean residual 0".67.
m1 = 9.3 + 5 logΔ + 7.5 log r